#timestamp,LO_Frequency,Hit,StdDev 
1712102415.8,286047003.6,N
1712102435.6,286047003.2,N
1712102455.5,286046999.9,N
1712102475.3,286046996.8,N
1712102495.1,286046995.0,N
1712102515.9,286046992.2,N
1712102535.7,286046994.7,N
1712102555.6,286046993.7,N
1712102575.4,286046993.0,N
1712102595.2,286046989.2,N
1712102615.1,286046991.2,N
1712102616.0,286046991.2,N
1712102635.8,286046990.9,N
1712102655.6,286046988.5,N
1712102675.5,286046991.7,N
1712102695.3,286046995.7,N
1712102715.2,286047001.1,N
1712102735.9,286046996.9,N
1712102755.7,286046997.2,N
1712102775.6,286046995.8,N
1712102795.4,286046995.3,N
1712102815.2,286046997.8,N
1712102835.1,286046995.4,N
1712102836.0,286046995.4,N
1712102855.8,286047000.7,N
1712102875.7,286047001.3,N
1712102895.5,286047000.7,N
1712102915.3,286046998.2,N
1712102935.2,286046998.3,N
1712102955.0,286047000.5,N
1712102955.9,286047000.5,N
1712102975.7,286047000.7,N
1712102995.6,286047004.0,N
1712103015.4,286047001.7,N
1712103035.3,286047000.1,N
1712103055.1,286047003.8,N
1712103075.8,286047005.8,N
1712103095.7,286047005.8,N
1712103115.5,286047003.8,N
1712103135.4,286047005.5,N
1712103155.2,286047009.2,N
1712103175.1,286047006.3,N
1712103176.0,286047006.3,N
1712103195.8,286047008.5,N
1712103215.6,286047008.9,N
1712103235.5,286047006.5,N
1712103255.3,286047010.5,N
1712103275.1,286047009.9,N
1712103295.9,286047009.1,N
1712103315.7,286047006.4,N
1712103335.6,286047005.3,N
1712103355.4,286047004.5,N
1712103375.2,286047003.4,N
1712103395.1,286047003.8,N
1712103396.0,286047003.8,N
1712103415.8,286047002.8,N
1712103435.7,286047004.6,N
1712103455.5,286047005.1,N
1712103475.3,286047009.0,N
1712103495.2,286047006.9,N
1712103515.9,286047007.9,N
1712103535.7,286047008.7,Y
1712103555.6,286047002.0,P
1712103575.4,286047002.5,N
1712103595.3,286047002.8,N
1712103615.1,286047004.1,N
1712103616.0,286047004.1,Y
1712103635.8,286046998.2,P
1712103655.7,286047000.9,N
1712103675.5,286047002.2,N
1712103695.4,286047002.3,N
1712103715.2,286047002.4,N
1712103735.0,286047004.6,N
1712103735.9,286047004.6,N
1712103755.8,286047007.1,Y
1712103775.6,286047003.6,P
1712103795.5,286047002.9,P
1712103815.3,286047007.1,P
1712103835.1,286047005.1,N
1712103855.9,286047006.0,Y
1712103875.7,286047002.4,P
1712103895.5,286047002.0,N
1712103915.4,286046998.6,N
1712103935.2,286046996.6,N
1712103955.1,286046995.3,N
1712103956.0,286046995.3,N
1712103975.8,286046995.5,N
1712103995.6,286046993.9,N
1712104015.5,286046995.9,N
1712104035.3,286046999.5,N
1712104055.1,286047000.7,N
1712104075.9,286047003.0,N
1712104095.7,286046999.9,N
1712104115.6,286046998.5,N
1712104135.4,286046998.7,N
1712104155.2,286046999.7,N
1712104175.1,286046999.1,N
1712104176.0,286046999.1,N
1712104195.8,286046997.9,N
1712104245.7,286046998.1,E
1712104255.6,286047000.1,N
1712104275.4,286046998.9,P
1712104295.3,286046999.5,N
1712104315.1,286046997.4,Y
1712104335.8,286047000.5,P
1712104355.7,286047000.4,N
1712104375.5,286046999.8,N
1712104395.4,286047002.0,Y
1712104415.2,286047004.3,P
1712104435.0,286047002.2,N
1712104435.9,286047002.2,N
1712104455.8,286047001.5,N
1712104475.6,286047003.0,N
1712104495.5,286046999.7,N
1712104515.3,286047000.2,N
1712104535.1,286047002.7,N
1712104555.9,286047001.6,N
1712104575.7,286047004.2,Y
1712104595.6,286047003.9,P
1712104615.4,286047004.2,P
1712104635.2,286047004.0,P
1712104655.1,286047003.5,Y
1712104656.0,286047003.5,P
1712104675.8,286047002.4,P
1712104695.7,286047004.3,P
1712104715.5,286047007.4,Y
1712104735.3,286047001.3,P
1712104755.2,286047000.4,N
1712104775.0,286047000.9,N
1712104775.9,286047000.9,N
1712104795.7,286046998.3,N
1712104815.6,286046999.5,N
1712104835.4,286046999.3,N
1712104855.3,286046999.5,N
1712104875.1,286046998.1,N
1712104876.0,286046998.1,N
1712104895.8,286047000.1,N
1712104915.7,286047000.5,N
1712104935.5,286047000.8,N
1712104955.3,286046999.5,N
1712104975.2,286046999.9,N
1712104995.0,286046999.0,N
1712104995.9,286046999.0,N
1712105015.8,286047003.1,N
1712105035.6,286047002.4,N
1712105055.4,286047003.4,N
1712105075.3,286047002.8,N
1712105095.1,286047001.0,N
1712105115.8,286046995.1,Y
1712105135.7,286046992.0,P
1712105155.5,286046996.1,N
1712105175.4,286046993.0,N
1712105195.2,286046990.2,N
1712105215.0,286046990.5,N
1712105215.9,286046990.5,N
1712105235.8,286046985.6,Y
1712105255.6,286047000.5,P
1712105275.5,286046998.4,N
1712105295.3,286047010.8,P
1712105315.1,286047009.2,N
1712105335.9,286047004.7,N
1712105355.7,286047004.9,N
1712105375.5,286047008.4,N
1712105395.4,286047007.2,N
1712105415.2,286047009.7,N
1712105435.1,286047008.5,N
1712105436.0,286047008.5,N
1712105455.8,286047008.4,N
1712105475.6,286047008.2,N
1712105495.5,286047012.3,N
1712105515.3,286047010.4,N
1712105535.1,286047009.6,N
1712105555.9,286047010.5,N
1712105575.7,286047009.0,N
1712105595.6,286047008.8,N
1712105615.4,286047006.4,N
1712105635.2,286047006.3,N
1712105655.1,286047006.4,N
1712105656.0,286047006.4,N
1712105675.8,286047008.2,N
1712105695.6,286047007.7,N
1712105715.5,286047010.3,N
1712105735.3,286047008.8,N
1712105755.1,286047008.6,N
1712105775.9,286047006.1,N
1712105795.7,286047010.7,N
1712105815.6,286047010.6,Y
1712105835.4,286047000.8,P
1712105855.2,286047002.7,N
1712105875.1,286046997.4,N
1712105876.0,286046997.4,N
1712105895.8,286046996.8,N
1712105915.7,286046994.8,N
1712105935.5,286047001.1,N
1712105955.3,286047000.7,N
1712105975.2,286046998.1,N
1712105995.9,286047002.2,N
